Location: Newark
(46.9000°N, 28.3500°E)
Time: 12:46:39
(UTC+00:00)

Courier 1B Rocket - Visible Passes

Search period start: 19 August 2019 00:00
Search period end: 29 August 2019 00:00
Orbit: 920 x 1202 km, 28.3° (Epoch: 18 August)

Date Brightness Start Highest point End Pass type
(mag) Time Alt. Az. Time Alt. Az. Time Alt. Az.
19 Aug 7.4 01:56:24 10° S 01:57:52 11° SSE 01:59:20 10° SSE visible
21 Aug 7.2 01:45:09 10° S 01:48:32 13° SSE 01:51:57 10° SE visible
22 Aug 7.3 00:47:03 10° SSE 00:47:48 10° SSE 00:48:45 10° SSE visible
22 Aug 7.1 02:35:18 10° SSW 02:40:02 18° S 02:44:49 10° SE visible
23 Aug 7.0 01:36:05 12° SSW 01:39:14 16° SSE 01:43:27 10° SE visible
24 Aug 7.1 00:38:47 13° SSE 00:38:47 13° SSE 00:41:36 10° SE visible
24 Aug 6.9 02:25:57 10° SW 02:30:46 18° S 02:35:40 10° SE visible
25 Aug 6.8 01:27:52 15° SSW 01:29:58 17° S 01:34:32 10° SE visible
26 Aug 7.1 00:30:36 14° SSE 00:30:36 14° SSE 00:33:05 10° SE visible
26 Aug 6.9 02:16:58 10° SW 02:21:30 18° S 02:26:16 10° SE visible
27 Aug 6.7 01:19:45 17° S 01:20:43 17° S 01:25:20 10° SE visible
28 Aug 7.1 00:22:35 13° SSE 00:22:35 13° SSE 00:24:10 10° SE visible
28 Aug 6.9 02:08:57 12° SW 02:12:16 16° S 02:16:34 10° SSE visible
